Flag for Israel Weather past 2 weeks in Rishon LeZion, Israel

Now
82 °F

Clear.


Feels Like: 88 °F
Forecast: 78 / 89 °F
Wind: 3 mph from North

Location: Ben Gurion International Airport

Current Time: Sep 1, 2015 at 11:21:35 PM

Latest Report: Sep 1, 2015 at 10:50 PM


Visibility: 10 mi

Pressure: 29.86 "Hg

Humidity: 74%

Dew point: 73 °F

Location of Rishon LeZionLocation

Historic Weather in Rishon LeZion — Graph

°F

Rishon LeZion temperature yesterday

Maximum temperature yesterday: 90 °F (at 12:20 PM)
Minimum temperature yesterday: 75 °F (at 4:20 AM)
Average temperature yesterday: 83 °F

Past Weeks' High & Low Weather Summary

 TemperatureHumidityPressure
High93 °F (Aug 18, 12:50 PM)84% (Aug 18, 12:50 AM)29.89 "Hg (Aug 18, 12:50 AM)
Low75 °F (Aug 26, 4:20 AM)46% (Aug 18, 1:50 PM)29.71 "Hg (Aug 23, 3:20 PM)
Average84 °F65%29.81 "Hg
* Reported Aug 17 10:20 PM — Sep 1 10:20 PM, Rishon LeZion, Weather by CustomWeather, © 2015

Note: Actual official high and low records may vary slightly from our data, if they occured in-between our weather recording intervals... More about our weather records

Advertising

Rishon LeZion weather history for previous 24 hours

 ConditionsComfort  
Time TempWeatherWind HumidityBarometerVisibility
10:20 PM
Tue, Sep 1
82 °FClear.2 mph74%29.86 "Hg10 mi
9:50 PM82 °FClear.3 mph74%29.86 "Hg10 mi
9:20 PM82 °FClear.6 mph74%29.86 "Hg10 mi
8:50 PM82 °FClear.6 mph74%29.86 "Hg10 mi
8:20 PM84 °FClear.6 mph70%29.86 "Hg10 mi
7:50 PM84 °FSunny.7 mph70%29.86 "Hg10 mi
7:20 PM84 °FSunny.7 mph70%29.83 "Hg10 mi
6:50 PM86 °FSunny.7 mph62%29.83 "Hg10 mi
6:20 PM86 °FSunny.9 mph62%29.83 "Hg10 mi
5:50 PM88 °FSunny.9 mph55%29.83 "Hg10 mi
5:20 PM88 °FSunny.9 mph59%29.83 "Hg10 mi
4:50 PM90 °FSunny.10 mph55%29.83 "Hg10 mi
4:20 PM90 °FPassing clouds.13 mph55%29.83 "HgN/A
3:50 PM90 °FPassing clouds.13 mph52%29.83 "HgN/A
3:20 PM90 °FPassing clouds.13 mph52%29.83 "HgN/A
2:50 PM90 °FPassing clouds.12 mph55%29.83 "HgN/A
2:20 PM90 °FPassing clouds.12 mph55%29.86 "HgN/A
1:50 PM90 °FPassing clouds.12 mph55%29.86 "HgN/A
1:20 PM90 °FPassing clouds.12 mph55%29.86 "HgN/A
12:50 PM90 °FPassing clouds.10 mph55%29.86 "HgN/A
12:20 PM90 °FPassing clouds.12 mph55%29.86 "HgN/A
11:50 AM90 °FPassing clouds.9 mph55%29.86 "HgN/A
11:20 AM90 °FPassing clouds.5 mph52%29.86 "HgN/A
10:50 AM88 °FPassing clouds.6 mph55%29.89 "HgN/A
10:20 AM86 °FPassing clouds.6 mph62%29.89 "HgN/A
9:50 AM84 °FPassing clouds.8 mph66%29.89 "HgN/A
9:20 AM82 °FPassing clouds.8 mph70%29.86 "HgN/A
8:50 AM82 °FPassing clouds.8 mph70%29.86 "HgN/A
8:20 AM81 °FSunny.8 mph74%29.86 "Hg10 mi
7:50 AM81 °FSunny.6 mph74%29.86 "Hg10 mi
6:20 AM77 °FPassing clouds.7 mph79%29.86 "HgN/A
5:50 AM77 °FPassing clouds.6 mph79%29.83 "HgN/A
5:20 AM77 °FPassing clouds.6 mph79%29.83 "HgN/A
4:50 AM77 °FPassing clouds.6 mph79%29.83 "HgN/A
4:20 AM77 °FPassing clouds.6 mph79%29.83 "HgN/A
3:50 AM77 °FPassing clouds.6 mph79%29.83 "HgN/A
3:20 AM77 °FPassing clouds.5 mph83%29.86 "HgN/A
2:50 AM79 °FPassing clouds.6 mph79%29.86 "HgN/A
2:20 AM79 °FPassing clouds.6 mph79%29.86 "HgN/A
1:50 AM79 °FPassing clouds.5 mph74%29.86 "HgN/A
1:20 AM81 °FPassing clouds.2 mph74%29.86 "HgN/A
12:50 AM81 °FPassing clouds.3 mph74%29.86 "HgN/A
12:20 AM81 °FPassing clouds.3 mph74%29.86 "HgN/A
11:50 PM
Mon, Aug 31
81 °FPassing clouds.3 mph74%29.86 "HgN/A
11:20 PM81 °FPassing clouds.2 mph70%29.86 "HgN/A
Weather by CustomWeather, © 2015

See weather overviewHow to use our weather pages